Weather in Serravalle

San Marino     43°58′13″N   12°28′52″E
temp.,
°C
wind,
m/s
gust,
m/s
humid.,
%
clouds,
%
prec.,
mm/h
press.,
hPa
HPBL,
m
5 december, sun
sun501:00+9wnw228422 0.1 100382
04:00+9sw25791 0.0 1002156
07:00+7ssw127416 0.0 100156
10:00+9wsw256892 0.0 1002235
13:00+7nw467929 0.0 1002457
16:00+6n22848 0.0 1003198
19:00+4nw239294 0.0 1004236
22:00+5w228690 0.0 1005205
6 december, mon
mon601:00+4wnw35848 0.0 1005252
04:00+4wnw4783100 0.0 1006607
07:00+4wnw4783100 0.1 1007477
10:00+4wnw61087100 0.2 1009654
13:00+5wnw3584100 0.4 1009567
16:00+6wnw247848 0.3 1010173
19:00+5nw477656 0.4 1013335
22:00+3w45865 0.0 1013155
7 december, tue
tue701:00+3w23833 0.0 101391
04:00+3wsw22724 0.0 101251
07:00+2w226485 0.0 101145
10:00+5wnw2358100 0.0 1013193
13:00+6nw36520 0.0 1012568
16:00+5wnw34600 0.0 1013182
19:00+3wsw12640 0.0 101357
22:00+3s11610 0.0 101340
8 december, wed
wed801:00+2s22593 0.0 101245
04:00+2s225545 0.0 101049
07:00+3sse345293 0.0 100874
10:00+6se3550100 0.0 1006184
13:00+7se4769100 0.3 1003221
16:00+9s51178100 0.1 1000444
19:00+7w2287100 0.1 100250
22:00+4nw1290100 0.0 1005108
9 december, thu
thu901:00+3n2292100 0.1 1004168
04:00+3nw1293100 0.0 100491
07:00+2nw2293100 0.1 1004169
10:00+3nw3488100 0.1 1004349
13:00+3wnw3383100 0.1 1003297
16:00+4nw2381100 0.0 1003261
19:00+2wsw118899 0.0 100346
22:00+2nnw128851 0.0 100455